Change the Weather History Date:

Sunday, October 21, 2012

  Actual Average Record
Temperature  
Mean Temperature 61 °F 52 °F  
Max Temperature 83 °F 66 °F 92 °F (1947)
Min Temperature 38 °F 38 °F 20 °F (1987)
Degree Days  
Heating Degree Days 6    
Growing Degree Days 10 (Base 50)    
Moisture  
Dew Point 47 °F    
Average Humidity 66    
Maximum Humidity 97    
Minimum Humidity 28    
Precipitation  
Precipitation 0.00 in 0.05 in 0.92 in (2008)
Month to date precipitation 1.01 1.12  
Year to date precipitation 9.72 20.88  
Sea Level Pressure  
Sea Level Pressure 29.67 in    
Wind  
Wind Speed 5 mph (ESE)    
Max Wind Speed 15 mph    
Max Gust Speed -    
Visibility 10 miles    
Events      
T = Trace of Precipitation, MM = Missing Value Source: NWS Daily Summary

Daily Weather History Graph

Daily Weather History Graph

Search for Another Location

Airport or City:

Trip Planner

Search our weather history database for the weather conditions in past years. The results will help you decide how hot, cold, wet, or windy it might be!

Date:

Astronomy

Oct. 21, 2012 Rise Set
Actual Time 7:55 AM CDT 6:51 PM CDT
Civil Twilight 7:28 AM CDT 7:18 PM CDT
Nautical Twilight 6:57 AM CDT 7:49 PM CDT
Astronomical Twilight 6:26 AM CDT 8:20 PM CDT
Moon 2:17 PM CDT (10/21) No Moon Set
Length of Visible Light 11h 49m
Length of Day
10h 55m
Waxing Crescent, 45% of the Moon is Illuminated
Oct 21
Waxing Crescent
Oct 21
First Quarter
Oct 29
Full
Nov 6
Last Quarter
Nov 13
New

Hourly Weather History & Observations

Time (CDT) Temp. Windchill Dew Point Humidity Pressure Visibility Wind Dir Wind Speed Gust Speed Precip Events Conditions
12:53 AM 60.1 °F - 41.0 °F 49% 29.63 in 10.0 mi WSW 5.8 mph - N/A   Clear
1:53 AM 55.9 °F - 42.1 °F 60% 29.62 in 10.0 mi Calm Calm - N/A   Clear
2:53 AM 54.0 °F - 43.0 °F 66% 29.62 in 10.0 mi SSW 6.9 mph - N/A   Clear
3:53 AM 52.0 °F - 44.1 °F 74% 29.64 in 10.0 mi SW 8.1 mph - N/A   Clear
4:53 AM 50.0 °F - 43.0 °F 77% 29.64 in 10.0 mi South 3.5 mph - N/A   Clear
5:53 AM 46.9 °F - 43.0 °F 86% 29.64 in 10.0 mi South 3.5 mph - N/A   Clear
6:53 AM 39.9 °F 37.8 °F 37.9 °F 93% 29.65 in 10.0 mi SW 3.5 mph - N/A   Clear
7:53 AM 37.9 °F 35.5 °F 37.0 °F 97% 29.68 in 9.0 mi North 3.5 mph - N/A   Clear
8:53 AM 44.1 °F - 41.0 °F 89% 29.70 in 10.0 mi Calm Calm - N/A   Clear
9:53 AM 53.1 °F - 45.0 °F 74% 29.70 in 10.0 mi ESE 3.5 mph - N/A   Clear
10:53 AM 62.1 °F - 46.9 °F 58% 29.68 in 10.0 mi Variable 3.5 mph - N/A   Clear
11:53 AM 72.0 °F - 45.0 °F 38% 29.66 in 10.0 mi Calm Calm - N/A   Clear
12:53 PM 75.9 °F - 46.0 °F 35% 29.65 in 10.0 mi Variable 4.6 mph - N/A   Clear
1:53 PM 78.1 °F - 46.0 °F 32% 29.64 in 10.0 mi ENE 8.1 mph - N/A   Clear
2:53 PM 81.0 °F - 46.9 °F 30% 29.61 in 10.0 mi East 9.2 mph - N/A   Clear
3:53 PM 82.0 °F - 46.0 °F 28% 29.62 in 10.0 mi East 4.6 mph - N/A   Clear
4:53 PM 78.1 °F - 55.0 °F 45% 29.64 in 10.0 mi ESE 11.5 mph - N/A   Clear
5:53 PM 73.0 °F - 57.0 °F 57% 29.66 in 10.0 mi ESE 9.2 mph - N/A   Clear
6:53 PM 66.9 °F - 55.0 °F 66% 29.70 in 10.0 mi ESE 4.6 mph - N/A   Clear
7:53 PM 57.0 °F - 52.0 °F 83% 29.73 in 10.0 mi Calm Calm - N/A   Clear
8:53 PM 57.0 °F - 53.1 °F 87% 29.73 in 10.0 mi North 9.2 mph - N/A   Clear
9:53 PM 55.9 °F - 54.0 °F 93% 29.73 in 9.0 mi Calm Calm - N/A   Clear
10:53 PM 57.9 °F - 55.9 °F 93% 29.73 in 8.0 mi NNE 9.2 mph - N/A   Clear
11:53 PM 55.9 °F - 51.1 °F 84% 29.72 in 10.0 mi North 15.0 mph - N/A   Clear